Regional Weather Roundup
Issued by NWS

Home | Current Version | Previous Version | Graphics & Text | Print | Product List | Glossary On
Versions: 1 2 3 4 5 6 7 8 9 10 11 12 13 14 15 16 17 18 19 20 21 22 23 24 25 26 27 28 29 30 31 32 33 34 35 36 37 38 39 40 41 42 43 44 45 46 47 48 49 50
000
ASUS43 KOAX 220610
RWRNE

WEATHER ROUNDUP FOR NEBRASKA
NATIONAL WEATHER SERVICE OMAHA NE
100 AM CDT WED OCT 22 2014

NOTES: SATELLITE DATA IS BEING USED TO AUGMENT CLOUD COVER ABOVE
       12000 FEET.
       "FAIR" INDICATES FEW OR NO CLOUDS BELOW 12,000 FEET WITH NO
       SIGNIFICANT WEATHER AND/OR OBSTRUCTIONS TO VISIBILITY.

  * THESE STATIONS DO NOT REPORT WEATHER SUCH AS RAIN...SNOW OR FOG.

NEZ001>004-019>022-054>056-220700-
NEBRASKA PANHANDLE

CITY           SKY/WX    TMP DP  RH WIND       PRES   REMARKS
SCOTTSBLUFF    LGT RAIN  62  46  55 W14       29.91R
6HR MIN TEMP:  57; 6HR MAX TEMP:  69; 6HR PCP: TRACE;

ALLIANCE       MOCLDY    49  41  74 SE6       29.88S
6HR MIN TEMP:  48; 6HR MAX TEMP:  64;

CHADRON        CLOUDY    67  43  41 W15       29.82R
6HR MIN TEMP:  60; 6HR MAX TEMP:  72; 6HR PCP: TRACE;

KIMBALL        CLOUDY    57  46  65 W17       29.94R
SIDNEY         CLOUDY    56  42  59 SW7       29.92R
6HR MIN TEMP:  53; 6HR MAX TEMP:  67;

$$

NEZ057>060-069>072-079>082-220700-
SOUTHWEST NEBRASKA

CITY           SKY/WX    TMP DP  RH WIND       PRES   REMARKS
NORTH PLATTE   CLEAR     63  51  65 S13       29.91S
6HR MIN TEMP:  62; 6HR MAX TEMP:  72;

IMPERIAL       CLEAR     60  46  59 SE9       29.91S
6HR MIN TEMP:  60; 6HR MAX TEMP:  73;

LEXINGTON      PTCLDY    63  56  80 SE9       29.94F
MCCOOK         CLEAR     63  51  65 S13G21    29.93F
6HR MIN TEMP:  63; 6HR MAX TEMP:  73;

OGALLALA       PTCLDY    61  50  67 S9        29.88F
$$

NEZ005>010-023>029-035>040-094-220700-
NORTH CENTRAL NEBRASKA

CITY           SKY/WX    TMP DP  RH WIND       PRES   REMARKS
VALENTINE      CLEAR     63  55  75 S16G25    29.84S
6HR MIN TEMP:  63; 6HR MAX TEMP:  71;

AINSWORTH      PTCLDY    60  52  77 S15       29.88S
BROKEN BOW     PTCLDY    60  54  80 SE10      29.93S
6HR MIN TEMP:  59; 6HR MAX TEMP:  69;

O`NEILL        PTCLDY    60  44  55 SE15G22   29.93F
ORD            PTCLDY    56  48  74 CALM      29.94S
6HR MIN TEMP:  54; 6HR MAX TEMP:  69;

THEDFORD       CLEAR     63  56  77 S13       29.90S
$$

NEZ041-046>049-061>064-073>077-083>087-220700-
SOUTH CENTRAL NEBRASKA

CITY           SKY/WX    TMP DP  RH WIND       PRES   REMARKS
GRAND ISLAND   PTCLDY    60  49  66 S13       29.98R
6HR MIN TEMP:  60; 6HR MAX TEMP:  69;

AURORA         PTCLDY    59  45  59 SE12      29.99R HAZE
HASTINGS       PTCLDY    60  50  69 S13       29.97S
6HR MIN TEMP:  60; 6HR MAX TEMP:  69;

HEBRON         CLEAR     59  49  69 SE13      30.01S
HOLDREGE       PTCLDY    61  55  80 S12       29.96S
KEARNEY *      PTCLDY    59  54  82 SE9       29.97S
YORK           CLEAR     57  45  62 SE13      30.00S
$$

NEZ011>018-030>034-042>045-220700-
NORTHEAST NEBRASKA

CITY           SKY/WX    TMP DP  RH WIND       PRES   REMARKS
NORFOLK        CLEAR     59  40  49 SE15      30.00S
6HR MIN TEMP:  58; 6HR MAX TEMP:  67;

ALBION         CLEAR     55  41  57 SE7       29.99S
BLAIR          MOCLDY    57  45  63 SE10      30.06S
COLUMBUS *     CLEAR     59  39  47 SE12G21   30.02F
FREMONT        CLEAR     58  41  52 SE12      30.04S
TEKAMAH        CLOUDY    56  45  66 SE10      30.06S
6HR MIN TEMP:  51; 6HR MAX TEMP:  62;

WAYNE          CLEAR     56  40  56 SE7       30.03R
$$

NEZ050>053-065>068-078-088>093-220700-
SOUTHEAST NEBRASKA

CITY           SKY/WX    TMP DP  RH WIND       PRES   REMARKS
LINCOLN        CLEAR     61  42  49 SE15      30.04F
6HR MIN TEMP:  60; 6HR MAX TEMP:  66;

OMAHA EPPLEY   PTCLDY    57  44  62 SE17      30.07F
6HR MIN TEMP:  57; 6HR MAX TEMP:  64;

BEATRICE       CLEAR     59  44  56 SE9G17    30.04R
FALLS CITY     CLOUDY    56  44  64 SE8       30.08S
6HR MIN TEMP:  53; 6HR MAX TEMP:  62;

NEBRASKA CITY  CLOUDY    58  40  51 SE14G22   30.08S
PLATTSMOUTH    PTCLDY    56  43  60 SE13      30.07F
$$

NEZ044-045-051>053-067-220700-
OMAHA AREA

CITY           SKY/WX    TMP DP  RH WIND       PRES   REMARKS
OMAHA EPPLEY   PTCLDY    57  44  62 SE17      30.07F
6HR MIN TEMP:  57; 6HR MAX TEMP:  64;

BLAIR          MOCLDY    57  45  63 SE10      30.06S
FREMONT        CLEAR     58  41  52 SE12      30.04S
MILLARD        CLOUDY    58  45  62 SE9       30.06S
OFFUTT AFB     PTCLDY    55  49  80 E14       30.07S
PLATTSMOUTH    PTCLDY    56  43  60 SE13      30.07F
WAHOO          FAIR      56  41  56 SE8       30.04S
$$



USA.gov is the U.S. government's official web portal to all federal, state and local government web resources and services.